Terug naar catalogus

STARLINK-4403

ActiefCommunicatieSSO
NORAD 53197·PAYLOAD·🇺🇸 United States

Gelanceerd Jul 22, 2022 vanaf Vandenberg Space Force Base

Loading…

Volgende Passages (komende 24 uur)

TLE

VersSource: CelesTrak SupGP

Epoch: Sep 14, 2026, 21:28 UTC

1 53197C 22084J   26257.89493056 -.00013752  00000+0 -42703-3 0  2572
2 53197  97.2828 312.7572 0001049 104.2815  27.0397 15.33436421    16

Volg STARLINK-4403 in realtime met AllMySat

Download on the App Store